Location: Navajo
(48.7922°N, 105.0603°W)
Time: 17:53:03
(UTC+00:00)

KKS-1 - Pass Details

Date: 09 July 2022
Orbit: 635 x 648 km, 98.2° (Epoch: 09 August)

Event Time Altitude Azimuth Distance (km) Brightness Sun altitude
Rises 03:49:47 0° 30° (NNE) 2,971 ? -6.5°
Reaches altitude 10° 03:52:56 10° 54° (NE) 2,052 ? -6.9°
Maximum altitude 03:55:29 15° 89° (E) 1,742 ? -7.2°
Drops below altitude 10° 03:58:00 10° 124° (SE) 2,037 ? -7.5°
Enters shadow 03:58:19 - 127° (SE) 2,111 ? -7.5°
